Weather History for Michigan City, IN

Change the Weather History Date:

Monday, March 11, 2013

  Actual Average (KVPZ) Record (KVPZ)
Temperature  
Mean Temperature 41 °F 36 °F  
Max Temperature 50 °F 45 °F 75 °F (1990)
Min Temperature 32 °F 27 °F 3 °F (1979)
Degree Days  
Heating Degree Days 24 29  
Month to date heating degree days 340  
Since 1 July heating degree days 5072  
Cooling Degree Days 0 0  
Month to date cooling degree days 0  
Year to date cooling degree days 0  
Moisture  
Dew Point 39 °F    
Average Humidity 91    
Maximum Humidity 94    
Minimum Humidity 81    
Precipitation  
Precipitation 0.00 in 0.07 in 1.47 in (1957)
Month to date precipitation 0.82  
Year to date precipitation 3.99  
Sea Level Pressure  
Sea Level Pressure 29.64 in    
Wind  
Wind Speed 10 mph (SW)    
Max Wind Speed 20 mph    
Max Gust Speed 28 mph    
Visibility 9 miles    
Events Rain    
T = Trace of Precipitation, MM = Missing Value Source: NWS Daily Summary

Daily Weather History Graph

Daily Weather History Graph

Search for Another Location

Airport:

Trip Planner

Search our weather history database for the weather conditions in past years. The results will help you decide how hot, cold, wet, or windy it might be!

Date:

Astronomy

Mar. 11, 2013 Rise Set
Actual Time 7:05 AM CDT 6:49 PM CDT
Civil Twilight 6:37 AM CDT 7:17 PM CDT
Nautical Twilight 6:05 AM CDT 7:49 PM CDT
Astronomical Twilight 5:33 AM CDT 8:22 PM CDT
Moon 6:38 AM CDT (3/11) 7:02 PM CDT (3/11)
Length of Visible Light 12h 39m
Length of Day
11h 44m
Waning Crescent, 0% of the Moon is Illuminated
Mar 11
Waning Crescent
Mar 11
New
Mar 19
First Quarter
Mar 27
Full
Apr 2
Last Quarter

Hourly Weather History & Observations

Time (CDT) Temp. Windchill Dew Point Humidity Pressure Visibility Wind Dir Wind Speed Gust Speed Precip Events Conditions
12:15 AM 50.0 °F - 48.2 °F 94% 29.66 in 10.0 mi South 12.7 mph 19.6 mph N/A   Drizzle
12:35 AM 50.0 °F - 48.2 °F 94% 29.67 in 10.0 mi South 12.7 mph 17.3 mph N/A   Overcast
12:55 AM 50.0 °F - 48.2 °F 94% 29.66 in 7.0 mi South 9.2 mph 16.1 mph N/A   Light Drizzle
1:35 AM 50.0 °F - 46.4 °F 87% 29.67 in 10.0 mi South 9.2 mph - N/A   Overcast
1:55 AM 50.0 °F - 46.4 °F 87% 29.66 in 10.0 mi SSW 6.9 mph - N/A   Overcast
2:15 AM 50.0 °F - 46.4 °F 87% 29.66 in 5.0 mi SSW 8.1 mph - N/A Rain Rain
2:35 AM 48.2 °F - 46.4 °F 93% 29.66 in 5.0 mi SW 10.4 mph - N/A   Drizzle
2:55 AM 48.2 °F - 46.4 °F 93% 29.66 in 10.0 mi SW 6.9 mph - N/A   Overcast
3:15 AM 48.2 °F - 46.4 °F 93% 29.65 in 10.0 mi SSW 6.9 mph - N/A   Overcast
3:35 AM 48.2 °F - 44.6 °F 87% 29.64 in 10.0 mi SW 8.1 mph - N/A   Overcast
3:55 AM 46.4 °F 43.5 °F 44.6 °F 93% 29.64 in 10.0 mi South 5.8 mph - N/A   Overcast
4:15 AM 46.4 °F 43.5 °F 44.6 °F 93% 29.64 in 10.0 mi SSW 5.8 mph - N/A   Overcast
4:35 AM 46.4 °F 44.3 °F 44.6 °F 93% 29.64 in 10.0 mi SSW 4.6 mph - N/A   Overcast
4:55 AM 46.4 °F 44.3 °F 44.6 °F 93% 29.62 in 10.0 mi South 4.6 mph - N/A   Overcast
5:15 AM 46.4 °F 44.3 °F 44.6 °F 93% 29.62 in 10.0 mi South 4.6 mph - N/A   Overcast
5:35 AM 46.4 °F 44.3 °F 44.6 °F 93% 29.61 in 10.0 mi South 4.6 mph - N/A   Overcast
5:55 AM 46.4 °F 43.5 °F 44.6 °F 93% 29.64 in 10.0 mi South 5.8 mph - N/A   Overcast
6:15 AM 46.4 °F 44.3 °F 44.6 °F 93% 29.65 in 10.0 mi South 4.6 mph - N/A   Overcast
6:35 AM 46.4 °F 45.2 °F 44.6 °F 93% 29.64 in 10.0 mi SSE 3.5 mph - N/A   Overcast
6:55 AM 46.4 °F 44.3 °F 44.6 °F 93% 29.64 in 10.0 mi South 4.6 mph - N/A   Overcast
7:15 AM 46.4 °F 43.5 °F 44.6 °F 93% 29.63 in 10.0 mi South 5.8 mph - N/A   Overcast
7:35 AM 46.4 °F - 44.6 °F 93% 29.61 in 10.0 mi Calm Calm - N/A   Overcast
7:55 AM 46.4 °F 45.2 °F 44.6 °F 93% 29.61 in 10.0 mi SSE 3.5 mph - N/A   Overcast
8:15 AM 46.4 °F 44.3 °F 44.6 °F 93% 29.61 in 10.0 mi South 4.6 mph - N/A   Overcast
8:35 AM 46.4 °F 45.2 °F 44.6 °F 93% 29.61 in 10.0 mi South 3.5 mph - N/A   Overcast
8:55 AM 46.4 °F 44.3 °F 44.6 °F 93% 29.61 in 10.0 mi South 4.6 mph - N/A   Overcast
9:15 AM 46.4 °F 42.4 °F 44.6 °F 93% 29.60 in 4.0 mi South 8.1 mph - N/A Rain Rain
9:35 AM 46.4 °F 42.9 °F 44.6 °F 93% 29.59 in 2.5 mi SSW 6.9 mph - N/A Rain Rain
9:55 AM 44.6 °F 40.7 °F 42.8 °F 93% 29.60 in 5.0 mi SW 6.9 mph - N/A Rain Rain
10:15 AM 44.6 °F 38.8 °F 42.8 °F 93% 29.60 in 10.0 mi SW 11.5 mph - N/A   Overcast
10:35 AM 44.6 °F 39.2 °F 42.8 °F 93% 29.60 in 10.0 mi WSW 10.4 mph - N/A   Overcast
10:55 AM 44.6 °F 40.7 °F 42.8 °F 93% 29.59 in 10.0 mi WSW 6.9 mph - N/A   Overcast
11:15 AM 44.6 °F 40.2 °F 42.8 °F 93% 29.59 in 10.0 mi SW 8.1 mph - N/A   Overcast
11:35 AM 42.8 °F 36.6 °F 41.0 °F 93% 29.60 in 5.0 mi WSW 11.5 mph 17.3 mph N/A   Light Drizzle
11:55 AM 42.8 °F 38.0 °F 41.0 °F 93% 29.59 in 7.0 mi SW 8.1 mph - N/A   Overcast
12:15 PM 42.8 °F 38.0 °F 41.0 °F 93% 29.59 in 7.0 mi WSW 8.1 mph - N/A   Overcast
12:35 PM 42.8 °F 36.6 °F 41.0 °F 93% 29.57 in 10.0 mi SW 11.5 mph - N/A   Overcast
12:55 PM 44.6 °F 38.8 °F 41.0 °F 87% 29.56 in 10.0 mi SW 11.5 mph - N/A   Overcast
1:15 PM 42.8 °F 35.4 °F 37.4 °F 81% 29.55 in 10.0 mi SSW 15.0 mph - N/A   Overcast
1:35 PM 41.0 °F 33.1 °F 37.4 °F 87% 29.55 in 10.0 mi SW 15.0 mph 20.7 mph N/A   Overcast
1:55 PM 41.0 °F 33.5 °F 37.4 °F 87% 29.55 in 10.0 mi WSW 13.8 mph 20.7 mph N/A   Overcast
2:15 PM 37.4 °F 28.9 °F 35.6 °F 93% 29.56 in 7.0 mi WSW 13.8 mph 20.7 mph N/A   Overcast
2:35 PM 37.4 °F 27.8 °F 35.6 °F 93% 29.56 in 10.0 mi SW 17.3 mph 20.7 mph N/A   Overcast
2:55 PM 37.4 °F 27.2 °F 33.8 °F 87% 29.57 in 10.0 mi SW 19.6 mph 27.6 mph N/A   Overcast
3:15 PM 35.6 °F 26.2 °F 33.8 °F 93% 29.58 in 5.0 mi SW 15.0 mph 24.2 mph N/A   Overcast
3:35 PM 35.6 °F 26.6 °F 33.8 °F 93% 29.58 in 7.0 mi SW 13.8 mph 21.9 mph N/A   Overcast
3:55 PM 35.6 °F 26.2 °F 33.8 °F 93% 29.59 in 10.0 mi SSW 15.0 mph 23.0 mph N/A   Overcast
4:15 PM 35.6 °F 26.6 °F 33.8 °F 93% 29.60 in 7.0 mi SW 13.8 mph - N/A   Overcast
4:35 PM 35.6 °F 27.1 °F 33.8 °F 93% 29.60 in 7.0 mi SW 12.7 mph 23.0 mph N/A   Overcast
4:55 PM 35.6 °F 26.2 °F 33.8 °F 93% 29.61 in 7.0 mi SW 15.0 mph - N/A   Light Drizzle
5:15 PM 35.6 °F 26.2 °F 32.0 °F 87% 29.62 in 10.0 mi SW 15.0 mph 25.3 mph N/A   Drizzle
5:35 PM 35.6 °F 27.5 °F 32.0 °F 87% 29.63 in 10.0 mi SW 11.5 mph 18.4 mph N/A Rain Light Rain
5:55 PM 35.6 °F 28.0 °F 32.0 °F 87% 29.64 in 4.0 mi SW 10.4 mph - N/A Rain Light Rain
6:15 PM 35.6 °F 28.0 °F 33.8 °F 93% 29.65 in 10.0 mi SW 10.4 mph 18.4 mph N/A   Overcast
6:35 PM 35.6 °F 26.6 °F 32.0 °F 87% 29.66 in 10.0 mi WSW 13.8 mph 18.4 mph N/A   Overcast
6:55 PM 35.6 °F 28.0 °F 32.0 °F 87% 29.67 in 10.0 mi WSW 10.4 mph 18.4 mph N/A   Light Drizzle
7:15 PM 35.6 °F 27.5 °F 32.0 °F 87% 29.68 in 10.0 mi WSW 11.5 mph 18.4 mph N/A   Light Drizzle
7:35 PM 35.6 °F 27.1 °F 32.0 °F 87% 29.69 in 10.0 mi West 12.7 mph 20.7 mph N/A   Overcast
7:55 PM 33.8 °F 23.9 °F 32.0 °F 93% 29.70 in 10.0 mi WSW 15.0 mph 23.0 mph N/A   Overcast
8:15 PM 33.8 °F 24.8 °F 32.0 °F 93% 29.71 in 10.0 mi West 12.7 mph 17.3 mph N/A   Overcast
8:35 PM 33.8 °F 24.3 °F 32.0 °F 93% 29.72 in 10.0 mi West 13.8 mph 20.7 mph N/A   Overcast
8:55 PM 33.8 °F 24.8 °F 32.0 °F 93% 29.72 in 10.0 mi WSW 12.7 mph 19.6 mph N/A   Overcast
9:15 PM 33.8 °F 24.8 °F 32.0 °F 93% 29.73 in 10.0 mi West 12.7 mph 18.4 mph N/A   Overcast
9:35 PM 33.8 °F 24.8 °F 30.2 °F 87% 29.74 in 10.0 mi WSW 12.7 mph 23.0 mph N/A   Overcast
9:55 PM 33.8 °F 25.3 °F 30.2 °F 87% 29.74 in 10.0 mi WSW 11.5 mph 18.4 mph N/A   Overcast
10:15 PM 33.8 °F 25.3 °F 30.2 °F 87% 29.75 in 10.0 mi West 11.5 mph 18.4 mph N/A   Overcast
10:35 PM 33.8 °F 24.8 °F 30.2 °F 87% 29.76 in 10.0 mi WSW 12.7 mph 18.4 mph N/A   Overcast
10:55 PM 33.8 °F 25.8 °F 30.2 °F 87% 29.77 in 10.0 mi WSW 10.4 mph 17.3 mph N/A   Overcast
11:15 PM 32.0 °F 23.6 °F 30.2 °F 93% 29.77 in 10.0 mi West 10.4 mph 18.4 mph N/A   Overcast
11:35 PM 32.0 °F 22.5 °F 30.2 °F 93% 29.78 in 10.0 mi West 12.7 mph 19.6 mph N/A   Overcast
11:55 PM 32.0 °F 23.6 °F 30.2 °F 93% 29.78 in 10.0 mi West 10.4 mph 18.4 mph N/A   Overcast